GW3797 Weather Reports


time (UTC)temp
F
wind
direction
speed
knots
gust
knots
rain 1hr
in
rain 24hr
in
rain mn
in
humidity
%
barometer
mb
20260506051336 48 77 2.6 3.5 0.02 0.07 0.07 99 1007.8
20260506050834 48 54 1.7 1.7 0.02 0.06 0.06 99 1007.6
20260506050331 48 89 0.0 2.6 0.05 0.06 0.06 99 1008.1
20260506044822 48 287 0.9 2.6 0.05 0.05 0.05 99 1008.0
20260506044320 48 282 0.9 1.7 0.05 0.05 0.05 99 1007.8
20260506043816 48 82 1.7 2.6 0.05 0.04 0.04 99 1007.6
20260506043314 48 67 1.7 2.6 0.07 0.04 0.04 99 1007.4
20260506042812 48 291 0.0 1.7 0.09 0.04 0.04 99 1007.4
20260506042311 48 37 1.7 4.3 0.07 0.03 0.03 99 1007.3
20260506041809 48 42 1.7 3.5 0.05 0.02 0.02 99 1007.5
20260506041305 48 78 0.9 1.7 0.07 0.02 0.02 99 1007.4
20260506040803 48 51 1.7 4.3 0.07 0.01 0.01 99 1007.5
20260506040300 48 69 2.6 3.5 0.12 0.00 0.00 99 1007.5
20260506035756 48 72 0.9 3.5 0.12 1.09 1.09 99 1007.7
20260506035253 48 66 0.0 0.9 0.12 1.09 1.09 99 1007.8
20260506034750 48 146 0.0 0.9 0.12 1.07 1.07 99 1007.8
20260506034248 48 49 0.0 1.7 0.14 1.07 1.07 99 1007.7
20260506033744 49 135 0.0 0.9 0.12 1.05 1.05 99 1008.0
20260506033242 49 168 0.9 1.7 0.07 1.04 1.04 99 1007.9
20260506032738 49 274 0.9 2.6 0.05 1.03 1.03 99 1007.7
20260506032235 49 246 0.0 0.0 0.07 1.03 1.03 99 1007.7
20260506031732 49 269 0.0 1.7 0.05 1.02 1.02 99 1007.7
20260506031229 49 202 0.9 0.9 0.05 1.02 1.02 99 1007.6
20260506030728 49 304 0.0 0.0 0.07 1.02 1.02 99 1007.6
20260506030225 49 111 0.0 0.9 0.05 1.01 1.01 99 1007.6
20260506025722 49 15 1.7 2.6 0.05 1.00 1.00 99 1007.4
20260506025218 49 352 0.0 1.7 0.05 1.00 1.00 99 1007.4
20260506024715 49 266 0.9 0.9 0.02 1.00 1.00 99 1007.5
20260506024211 49 237 0.0 0.0 0.02 0.99 0.99 99 1007.5
20260506023708 49 88 0.0 1.7 0.02 0.99 0.99 99 1007.4
20260506023205 49 89 0.0 1.7 0.02 0.99 0.99 99 1007.4
20260506022702 49 74 1.7 1.7 0.05 0.99 0.99 99 1007.4
20260506022200 49 110 0.0 1.7 0.05 0.98 0.98 99 1007.7
20260506021657 49 82 1.7 2.6 0.07 0.98 0.98 99 1007.4
20260506021154 49 101 1.7 1.7 0.07 0.97 0.97 99 1007.6
20260506020651 49 110 3.5 3.5 0.07 0.96 0.96 99 1007.7
20260506020149 49 93 3.5 6.1 0.09 0.96 0.96 99 1007.5
20260506015646 49 86 2.6 4.3 0.09 0.95 0.95 99 1007.6
20260506015143 49 89 4.3 5.2 0.09 0.94 0.94 99 1007.5
20260506014635 49 113 2.6 3.5 0.09 0.93 0.93 99 1007.7
20260506014130 48 63 2.6 3.5 0.09 0.93 0.93 99 1007.7
20260506013629 49 84 1.7 3.5 0.07 0.92 0.92 99 1007.9
20260506013126 49 83 1.7 2.6 0.09 0.91 0.91 99 1007.8
20260506012622 49 83 1.7 2.6 0.14 0.91 0.91 99 1008.0
20260506012118 49 202 0.0 0.9 0.12 0.89 0.89 99 1008.0
20260506011616 49 84 1.7 2.6 0.09 0.88 0.88 99 1007.8
20260506011112 48 84 1.7 1.7 0.12 0.87 0.87 99 1008.1
20260506010612 48 87 0.9 1.7 0.19 0.86 0.86 99 1008.2
20260506010108 49 106 1.7 1.7 0.28 0.85 0.85 99 1008.3
20260506005605 49 120 1.7 2.6 0.26 0.82 0.82 99 1008.3
20260506005101 48 246 0.0 1.7 0.17 0.80 0.80 99 1008.0
20260506004558 48 54 0.0 0.9 0.17 0.78 0.78 99 1008.0
20260506004055 49 83 1.7 1.7 0.14 0.77 0.77 99 1007.9
20260506003551 49 105 0.9 1.7 0.07 0.75 0.75 99 1007.9
20260506003048 49 286 0.9 0.9 0.09 0.74 0.74 99 1007.7
20260506002543 49 47 1.7 2.6 0.12 0.74 0.74 99 1007.7
20260506002039 49 78 1.7 5.2 0.07 0.72 0.72 99 1007.9
20260506001536 49 283 0.0 0.9 0.09 0.72 0.72 99 1008.2
20260506001033 49 69 1.7 2.6 0.21 0.71 0.71 99 1007.8
20260506000531 49 89 1.7 2.6 0.28 0.70 0.70 99 1008.2
20260506000028 49 122 0.0 2.6 0.24 0.68 0.68 99 1008.3
20260505235526 49 253 0.0 1.7 0.19 0.65 0.65 99 1008.1
20260505235022 49 162 1.7 1.7 0.21 0.63 0.63 99 1007.8
20260505234519 49 317 0.9 1.7 0.17 0.61 0.61 99 1007.9
20260505234016 49 165 0.9 1.7 0.14 0.59 0.59 99 1008.0
20260505233514 49 134 1.7 2.6 0.12 0.58 0.58 99 1007.6
20260505233011 49 33 0.0 1.7 0.12 0.57 0.57 99 1007.7
20260505232509 48 179 0.9 3.5 0.07 0.56 0.56 99 1007.7
20260505232006 49 158 2.6 3.5 0.09 0.55 0.55 99 1007.7
20260505231503 49 146 2.6 3.5 0.19 0.55 0.55 99 1007.6
20260505231002 49 206 0.0 3.5 0.21 0.53 0.53 99 1007.8
20260505230458 49 154 1.7 1.7 0.17 0.51 0.51 99 1007.8
20260505225955 49 137 0.0 0.9 0.17 0.50 0.50 99 1007.6
20260505225452 49 127 1.7 1.7 0.26 0.48 0.48 99 1007.8
20260505224948 50 257 0.0 2.6 0.24 0.46 0.46 99 1008.0
20260505224445 50 211 1.7 2.6 0.26 0.44 0.44 99 1007.9
20260505223942 49 179 2.6 2.6 0.26 0.42 0.42 99 1007.6
20260505223439 50 135 0.0 2.6 0.19 0.39 0.39 99 1007.9
20260505222935 50 183 1.7 2.6 0.14 0.38 0.38 99 1007.7
20260505222432 50 137 0.0 2.6 0.09 0.36 0.36 99 1007.8
20260505221927 50 57 0.0 1.7 0.09 0.35 0.35 99 1007.7
20260505221425 50 174 1.7 3.5 0.17 0.35 0.35 99 1007.5
20260505220922 50 51 2.6 2.6 0.14 0.33 0.33 99 1007.5
20260505220419 50 349 0.9 2.6 0.17 0.32 0.32 99 1008.0
20260505215916 50 129 0.0 3.5 0.26 0.30 0.30 99 1007.8
20260505215415 50 258 2.6 3.5 0.19 0.28 0.28 99 1007.8
20260505214912 50 237 0.9 4.3 0.17 0.26 0.26 99 1007.9
20260505214410 50 248 1.7 4.3 0.26 0.25 0.25 99 1007.8
20260505213907 51 256 0.0 4.3 0.19 0.23 0.23 99 1007.7
20260505213404 50 147 1.7 5.2 0.12 0.21 0.21 99 1007.8
20260505212900 51 287 2.6 3.5 0.14 0.20 0.20 99 1007.6
20260505212357 51 273 1.7 2.6 0.19 0.19 0.19 99 1007.5
20260505211854 52 121 1.7 7.8 0.19 0.17 0.17 99 1007.6
20260505211351 52 216 1.7 5.2 0.14 0.16 0.16 99 1007.7
20260505210848 53 200 3.5 4.3 0.17 0.14 0.14 98 1007.4
20260505210345 53 214 0.9 7.8 0.17 0.13 0.13 98 1007.6
20260505205841 53 178 3.5 5.2 0.17 0.11 0.11 98 1007.6
20260505205340 54 184 1.7 3.5 0.24 0.10 0.10 97 1007.4
20260505204836 53 272 2.6 6.1 0.24 0.08 0.08 97 1007.1
20260505204334 54 278 1.7 6.1 0.17 0.06 0.06 96 1007.4
20260505203831 54 137 2.6 5.2 0.07 0.04 0.04 95 1007.3
20260505203327 54 164 2.6 3.5 0.09 0.03 0.03 94 1007.0
20260505202824 54 193 4.3 7.0 0.07 0.02 0.02 93 1007.0
20260505202320 55 281 4.3 6.1 0.07 0.02 0.02 91 1007.1
20260505201817 55 174 1.7 7.8 0.07 0.01 0.01 90 1007.0
20260505201314 56 136 2.6 11.3 0.02 0.00 0.00 89 1006.9
20260505200813 57 133 0.0 7.0 0.00 0.00 0.00 88 1006.8
20260505200309 58 295 0.9 5.2 0.00 0.00 0.00 85 1006.7
20260505195804 58 190 0.0 4.3 0.00 0.00 0.00 84 1006.5
20260505195305 57 217 1.7 11.3 0.00 0.00 0.00 83 1006.5
20260505194759 57 84 2.6 5.2 0.00 0.00 0.00 83 1006.7
20260505194256 58 200 1.7 4.3 0.00 0.00 0.00 84 1006.8
20260505193756 58 190 4.3 5.2 0.00 0.00 0.00 84 1006.7
20260505193255 58 170 3.5 5.2 0.00 0.00 0.00 83 1006.8
20260505192753 58 269 6.1 10.4 0.00 0.00 0.00 83 1006.7
20260505192250 58 274 5.2 6.1 0.00 0.00 0.00 83 1006.9
20260505191748 59 154 2.6 8.7 0.00 0.00 0.00 83 1006.7
20260505191247 59 164 2.6 9.6 0.00 0.00 0.00 83 1006.8
20260505190742 59 216 10.4 11.3 0.00 0.00 0.00 82 1007.0
20260505190237 59 196 2.6 5.2 0.00 0.00 0.00 83 1006.8
20260505185734 58 195 2.6 5.2 0.00 0.00 0.00 83 1006.8
20260505185231 58 314 3.5 5.2 0.00 0.00 0.00 84 1006.9
20260505184726 58 103 3.5 6.1 0.00 0.00 0.00 83 1006.8
20260505184224 59 269 2.6 5.2 0.00 0.00 0.00 83 1007.0
20260505183721 58 201 5.2 9.6 0.00 0.00 0.00 84 1007.0
20260505183218 58 269 5.2 8.7 0.00 0.00 0.00 83 1006.9
20260505182714 59 146 2.6 10.4 0.00 0.00 0.00 82 1007.0
20260505182212 59 265 7.8 7.8 0.00 0.00 0.00 81 1006.8
20260505181708 60 157 3.5 6.1 0.00 0.00 0.00 80 1006.9
20260505181206 60 212 1.7 9.6 0.00 0.00 0.00 79 1006.8
20260505180702 60 144 2.6 6.1 0.00 0.00 0.00 78 1006.8
20260505180159 61 184 5.2 7.8 0.00 0.00 0.00 77 1006.5
20260505175655 61 203 4.3 7.8 0.00 0.00 0.00 77 1006.5
20260505175151 62 238 3.5 8.7 0.00 0.00 0.00 74 1006.3
20260505174648 63 220 6.1 10.4 0.00 0.00 0.00 72 1006.2
20260505174144 63 252 4.3 12.2 0.00 0.00 0.00 71 1006.1
20260505173641 64 274 7.0 12.2 0.00 0.00 0.00 70 1006.1
20260505173138 65 260 5.2 13.0 0.00 0.00 0.00 70 1005.8
20260505172635 64 178 2.6 5.2 0.00 0.00 0.00 70 1006.2
20260505172132 63 135 4.3 13.0 0.00 0.00 0.00 73 1005.8
20260505171632 62 148 1.7 7.0 0.00 0.00 0.00 75 1005.9
20260505171129 60 179 2.6 7.0 0.00 0.00 0.00 75 1006.0
20260505170626 60 118 4.3 5.2 0.00 0.00 0.00 76 1006.1
20260505170122 61 136 1.7 5.2 0.00 0.00 0.00 74 1006.1
20260505165617 62 267 2.6 3.5 0.00 0.00 0.00 73 1005.8
20260505165114 62 316 6.1 8.7 0.00 0.00 0.00 73 1005.6
20260505164609 63 215 6.1 6.1 0.00 0.00 0.00 70 1005.6
20260505164107 64 312 1.7 5.2 0.00 0.00 0.00 70 1005.7
20260505163606 65 184 1.7 7.8 0.00 0.00 0.00 69 1005.6
20260505163102 67 255 1.7 4.3 0.00 0.00 0.00 67 1005.3
20260505162600 67 323 1.7 7.0 0.00 0.00 0.00 65 1005.0
20260505162058 68 220 11.3 11.3 0.00 0.00 0.00 63 1004.9
20260505161554 68 253 4.3 7.0 0.00 0.00 0.00 65 1004.8
20260505161052 68 201 6.1 12.2 0.00 0.00 0.00 65 1004.7
20260505160550 68 299 2.6 3.5 0.00 0.00 0.00 65 1004.4
20260505153026 65 188 2.6 5.2 0.00 0.00 0.00 70 1005.5
20260505152523 65 203 2.6 7.0 0.00 0.00 0.00 69 1005.3
20260505152019 65 244 4.3 9.6 0.00 0.00 0.00 68 1005.4
20260505151514 66 276 5.2 10.4 0.00 0.00 0.00 68 1005.1
20260505151012 65 230 6.1 10.4 0.00 0.00 0.00 69 1005.2
20260505150508 65 212 3.5 4.3 0.00 0.00 0.00 70 1005.3
20260505140433 65 150 4.3 11.3 0.00 0.00 0.00 68 1004.0
20260505124846 65 166 1.7 8.7 0.00 0.00 0.00 67 1003.6
20260505124343 65 179 7.0 9.6 0.00 0.00 0.00 66 1003.5
20260505123839 65 184 7.0 9.6 0.00 0.00 0.00 67 1003.6
20260505123336 65 131 3.5 11.3 0.00 0.00 0.00 67 1003.6
20260505122832 65 246 2.6 7.8 0.00 0.00 0.00 66 1003.8
20260505122330 65 276 6.1 11.3 0.00 0.00 0.00 68 1003.2
20260505121826 65 259 4.3 7.0 0.00 0.00 0.00 68 1003.2
20260505121324 65 173 8.7 12.2 0.00 0.00 0.00 68 1003.3
20260505120819 65 114 1.7 9.6 0.00 0.00 0.00 69 1003.5
20260505120316 65 209 8.7 13.9 0.00 0.00 0.00 67 1003.3
20260505115814 65 199 4.3 16.5 0.00 0.00 0.00 67 1003.3
20260505115312 65 226 9.6 11.3 0.00 0.00 0.00 68 1003.1
20260505114809 65 227 2.6 15.6 0.00 0.00 0.00 68 1003.2
20260505114306 65 187 3.5 7.8 0.00 0.00 0.00 68 1002.9
20260505113803 65 213 3.5 13.0 0.00 0.00 0.00 68 1003.0
20260505113259 65 240 3.5 10.4 0.00 0.00 0.00 68 1002.9
20260505112754 64 230 7.0 10.4 0.00 0.00 0.00 68 1002.8
20260505112252 65 181 2.6 13.0 0.00 0.00 0.00 68 1002.8
20260505111747 64 189 6.1 9.6 0.00 0.00 0.00 68 1002.7
20260505111243 64 228 10.4 14.8 0.00 0.00 0.00 68 1002.8
20260505110739 64 205 0.9 11.3 0.00 0.00 0.00 69 1002.5
20260505110237 64 155 11.3 11.3 0.00 0.00 0.00 69 1002.5
20260505102212 64 158 4.3 11.3 0.00 0.00 0.00 69 1002.0
20260505101711 64 126 1.7 9.6 0.00 0.00 0.00 68 1002.0
20260505101206 64 206 6.1 17.4 0.00 0.00 0.00 68 1001.9
20260505100703 64 203 4.3 13.9 0.00 0.00 0.00 68 1001.7
20260505100200 65 223 7.0 13.9 0.00 0.00 0.00 67 1001.6
20260505095655 65 176 5.2 8.7 0.00 0.00 0.00 67 1001.8
20260505095154 64 205 8.7 10.4 0.00 0.00 0.00 68 1001.6
20260505094649 64 232 11.3 18.2 0.00 0.00 0.00 67 1001.6
20260505094145 64 168 7.0 10.4 0.00 0.00 0.00 67 1001.9
20260505093642 64 217 3.5 6.1 0.00 0.00 0.00 69 1001.8
20260505093140 64 71 0.9 13.0 0.00 0.00 0.00 68 1001.7
20260505092636 64 193 3.5 11.3 0.00 0.00 0.00 69 1001.7
20260505092135 64 128 4.3 10.4 0.00 0.00 0.00 69 1001.7
20260505091632 64 153 3.5 6.1 0.00 0.00 0.00 70 1001.8
20260505091130 64 207 3.5 9.6 0.00 0.00 0.00 70 1001.6
20260505090627 64 204 3.5 7.8 0.00 0.00 0.00 70 1001.9
20260505090125 64 189 10.4 16.5 0.00 0.00 0.00 68 1001.9
20260505085622 64 246 3.5 10.4 0.00 0.00 0.00 69 1001.5
20260505085121 64 109 2.6 7.8 0.00 0.00 0.00 70 1001.7
20260505084618 64 179 6.1 10.4 0.00 0.00 0.00 69 1002.0
20260505084116 64 216 1.7 11.3 0.00 0.00 0.00 69 1001.7
20260505083613 64 160 3.5 13.0 0.00 0.00 0.00 70 1001.3
20260505083110 64 208 4.3 10.4 0.00 0.00 0.00 69 1001.5
20260505082605 64 175 5.2 11.3 0.00 0.00 0.00 69 1001.4
20260505082103 64 353 3.5 10.4 0.00 0.00 0.00 69 1001.2
20260505081558 64 165 1.7 10.4 0.00 0.00 0.00 70 1001.5
20260505081056 64 201 6.1 9.6 0.00 0.00 0.00 68 1001.4
20260505080552 64 138 7.0 8.7 0.00 0.00 0.00 69 1001.3
20260505080049 65 101 5.2 11.3 0.00 0.00 0.00 68 1001.5
20260505075545 65 138 5.2 13.9 0.00 0.00 0.00 68 1001.4
20260505075042 65 159 6.1 11.3 0.00 0.00 0.00 69 1001.7
20260505074539 65 182 1.7 8.7 0.00 0.00 0.00 68 1001.4
20260505074036 65 190 6.1 10.4 0.00 0.00 0.00 68 1001.4
20260505073533 65 196 2.6 12.2 0.00 0.00 0.00 69 1001.6
20260505073032 65 185 7.0 10.4 0.00 0.00 0.00 68 1001.4
20260505072527 64 166 4.3 5.2 0.00 0.00 0.00 69 1001.5
20260505072023 65 183 6.1 14.8 0.00 0.00 0.00 67 1001.7
20260505071519 65 188 3.5 9.6 0.00 0.00 0.00 68 1001.6
20260505071018 66 181 2.6 9.6 0.00 0.00 0.00 68 1001.6
20260505070515 66 165 4.3 14.8 0.00 0.00 0.00 66 1001.6
20260505070010 66 136 5.2 10.4 0.00 0.00 0.00 66 1001.6
20260505065506 66 280 1.7 7.0 0.00 0.00 0.00 66 1001.8
20260505065003 65 190 4.3 6.1 0.00 0.00 0.00 67 1001.9
20260505064500 65 144 1.7 5.2 0.00 0.00 0.00 67 1001.7
20260505063959 65 167 5.2 13.0 0.00 0.00 0.00 67 1002.0
20260505063455 65 254 1.7 8.7 0.00 0.00 0.00 67 1001.9
20260505062951 65 240 1.7 9.6 0.00 0.00 0.00 69 1001.9
20260505062448 65 146 1.7 12.2 0.00 0.00 0.00 67 1002.1
20260505061945 65 187 6.1 7.8 0.00 0.00 0.00 67 1002.3
20260505061443 65 266 11.3 11.3 0.00 0.00 0.00 66 1002.4
20260505060940 66 198 3.5 10.4 0.00 0.00 0.00 66 1002.2
20260505060437 66 197 4.3 13.0 0.00 0.00 0.00 65 1002.5
20260505055934 65 200 10.4 11.3 0.00 0.00 0.00 66 1002.5